Date String (YYYY-MM-DD hh:mm:ss) UTC,Instrument flags,Ambient pressure (hPa),Sample flow (lpm),Bypass flow (lpm),Sample temperature (°C),Ambient temperature (°C),ASC tube jacket temperature (°C),LED temperature (°C),Box temperature (°C),Sample RH (%),Span deviation,Mass concentration (μg/m³),Mass concentration (μg/m³),Mass concentration (μg/m³)
DateTimeUTC,F1_M11,P_M11,Q1_M11,Q2_M11,T1_M11,T2_M11,T3_M11,T4_M11,T5_M11,U1_M11,ZSPAN_M11,X0_M11,X2_M11,X1_M11
2023-02-23 18:00:00,,0822.6,5.00,0.00,22.5,20.9,00.0,31.3,24.1,03.4,0000.0,0005.44,0003.80,0003.58
2023-02-23 18:01:00,,0822.4,5.00,0.00,22.5,20.8,00.0,31.3,24.1,03.4,0000.0,0005.47,0003.80,0003.58
2023-02-23 18:02:00,,0822.4,5.01,0.00,22.5,20.8,00.0,31.3,24.1,03.4,0000.0,0005.48,0003.79,0003.59
2023-02-23 18:03:00,,0822.4,5.03,0.00,22.5,20.7,00.0,31.3,24.1,03.4,0000.0,0006.43,0003.79,0003.59
2023-02-23 18:04:00,,0822.4,5.00,0.00,22.4,20.7,00.0,31.3,24.0,03.4,0000.0,0006.71,0003.84,0003.61
2023-02-23 18:05:00,,0822.5,4.99,0.00,22.4,20.7,00.0,31.3,24.0,03.4,0000.0,0007.22,0003.90,0003.65
2023-02-23 18:06:00,,0822.6,4.99,0.00,22.5,21.9,00.0,31.2,24.3,03.4,0000.0,0007.53,0003.91,0003.67
2023-02-23 18:07:00,,0822.6,5.02,0.00,22.6,23.3,00.0,31.2,24.6,03.4,0000.0,0007.54,0003.92,0003.68
2023-02-23 18:08:00,,0822.5,5.03,0.00,22.7,23.4,00.0,31.3,24.7,03.4,0000.0,0007.60,0003.94,0003.68
2023-02-23 18:09:00,,0822.3,4.99,0.00,22.8,22.9,00.0,31.3,24.6,03.3,0000.0,0007.61,0003.93,0003.66
2023-02-23 18:10:00,,0822.3,4.97,0.00,22.8,22.4,00.0,31.4,24.6,03.3,0000.0,0007.62,0003.93,0003.64
2023-02-23 18:11:00,,0822.4,4.98,0.00,22.8,22.0,00.0,31.4,24.5,03.3,0000.0,0007.61,0003.92,0003.63
2023-02-23 18:12:00,,0822.4,5.01,0.00,22.8,21.7,00.0,31.4,24.4,03.3,0000.0,0007.69,0003.98,0003.66
2023-02-23 18:13:00,,0822.4,4.99,0.00,22.7,21.5,00.0,31.4,24.4,03.3,0000.0,0007.73,0004.00,0003.67
2023-02-23 18:14:00,,0822.4,4.98,0.00,22.7,21.3,00.0,31.4,24.3,03.3,0000.0,0007.17,0004.03,0003.69
2023-02-23 18:15:00,,0822.4,4.99,0.00,22.7,21.2,00.0,31.4,24.3,03.4,0000.0,0006.97,0003.99,0003.68
2023-02-23 18:16:00,,0822.4,5.01,0.00,22.7,21.1,00.0,31.4,24.3,03.4,0000.0,0006.39,0003.95,0003.66
2023-02-23 18:17:00,,0822.3,4.98,0.00,22.6,21.0,00.0,31.4,24.3,03.3,0000.0,0005.94,0003.94,0003.65
2023-02-23 18:18:00,,0822.4,5.01,0.00,22.6,20.8,00.0,31.4,24.2,03.4,0000.0,0005.90,0003.92,0003.63
2023-02-23 18:19:00,,0822.5,5.01,0.00,22.6,20.7,00.0,31.4,24.1,03.3,0000.0,0005.89,0003.92,0003.63
2023-02-23 18:20:00,,0822.6,5.00,0.00,22.5,20.6,00.0,31.3,24.0,03.3,0000.0,0005.98,0003.95,0003.65
2023-02-23 18:21:00,,0822.6,4.98,0.00,22.5,21.8,00.0,31.3,24.3,03.4,0000.0,0005.99,0003.96,0003.67
2023-02-23 18:22:00,,0822.4,5.05,0.00,22.7,23.1,00.0,31.3,24.6,03.4,0000.0,0006.00,0003.96,0003.67
2023-02-23 18:23:00,,0822.4,5.00,0.00,22.8,23.2,00.0,31.4,24.7,03.4,0000.0,0005.99,0003.94,0003.68
2023-02-23 18:24:00,,0822.4,5.00,0.00,22.8,22.7,00.0,31.4,24.6,03.3,0000.0,0005.88,0003.93,0003.69
2023-02-23 18:25:00,,0822.4,5.02,0.00,22.8,22.2,00.0,31.4,24.5,03.3,0000.0,0005.96,0003.94,0003.69
2023-02-23 18:26:00,,0822.4,5.00,0.00,22.8,21.8,00.0,31.4,24.4,03.2,0000.0,0005.98,0003.95,0003.70
2023-02-23 18:27:00,,0822.5,4.98,0.00,22.7,21.4,00.0,31.4,24.3,03.3,0000.0,0006.08,0003.98,0003.72
2023-02-23 18:28:00,,0822.5,5.01,0.00,22.7,21.2,00.0,31.4,24.2,03.3,0000.0,0006.32,0003.99,0003.73
2023-02-23 18:29:00,,0822.5,5.01,0.00,22.6,21.0,00.0,31.4,24.2,03.3,0000.0,0006.67,0004.02,0003.75
2023-02-23 18:30:00,,0822.6,5.01,0.00,22.6,20.7,00.0,31.4,24.1,03.3,0000.0,0006.68,0004.02,0003.76
2023-02-23 18:31:00,,0822.6,5.00,0.00,22.5,20.5,00.0,31.4,24.0,03.3,0000.0,0006.63,0004.01,0003.76
2023-02-23 18:32:00,,0822.6,4.99,0.00,22.5,20.3,00.0,31.3,23.9,03.3,0000.0,0006.69,0004.00,0003.75
2023-02-23 18:33:00,,0822.6,5.00,0.00,22.4,20.2,00.0,31.3,23.8,03.3,0000.0,0007.76,0004.02,0003.75
2023-02-23 18:34:00,,0822.6,5.00,0.00,22.3,20.1,00.0,31.2,23.7,03.3,0000.0,0007.81,0004.01,0003.76
2023-02-23 18:35:00,,0822.6,5.00,0.00,22.3,20.7,00.0,31.2,23.9,03.4,0000.0,0008.24,0004.03,0003.77
2023-02-23 18:36:00,,0822.6,5.00,0.00,22.4,22.3,00.0,31.2,24.2,03.4,0000.0,0008.55,0004.04,0003.78
2023-02-23 18:37:00,,0822.5,4.92,0.00,22.6,23.0,00.0,31.2,24.5,03.4,0000.0,0008.80,0004.05,0003.79
2023-02-23 18:38:00,,0822.5,5.00,0.00,22.6,22.6,00.0,31.3,24.4,03.4,0000.0,0008.82,0004.06,0003.79
2023-02-23 18:39:00,,0822.6,5.02,0.00,22.6,22.1,00.0,31.3,24.4,03.4,0000.0,0008.75,0004.06,0003.80
2023-02-23 18:40:00,,0822.7,5.01,0.00,22.6,21.8,00.0,31.3,24.3,03.4,0000.0,0008.53,0004.06,0003.80
2023-02-23 18:41:00,,0822.7,5.01,0.00,22.6,21.5,00.0,31.3,24.3,03.4,0000.0,0008.52,0004.06,0003.81
2023-02-23 18:42:00,,0822.6,4.98,0.00,22.6,21.3,00.0,31.3,24.2,03.4,0000.0,0008.59,0004.10,0003.83
2023-02-23 18:43:00,,0822.5,5.00,0.00,22.6,21.1,00.0,31.3,24.2,03.4,0000.0,0008.63,0004.11,0003.85
2023-02-23 18:44:00,,0822.4,5.00,0.00,22.5,20.9,00.0,31.3,24.1,03.4,0000.0,0007.92,0004.13,0003.87
2023-02-23 18:45:00,,0822.4,5.01,0.00,22.5,20.7,00.0,31.3,24.0,03.4,0000.0,0007.91,0004.13,0003.87
2023-02-23 18:46:00,,0822.4,5.01,0.00,22.4,20.6,00.0,31.3,24.0,03.4,0000.0,0007.52,0004.13,0003.88
2023-02-23 18:47:00,,0822.4,5.00,0.00,22.4,20.4,00.0,31.2,23.9,03.4,0000.0,0007.12,0004.10,0003.87
2023-02-23 18:48:00,,0822.5,5.00,0.00,22.3,20.4,00.0,31.2,23.9,03.4,0000.0,0006.58,0004.08,0003.87
2023-02-23 18:49:00,,0822.6,4.99,0.00,22.3,20.5,00.0,31.2,23.9,03.5,0000.0,0006.46,0004.06,0003.86
2023-02-23 18:50:00,,0822.5,4.97,0.00,22.4,21.8,00.0,31.2,24.2,03.5,0000.0,0006.55,0004.05,0003.86
2023-02-23 18:51:00,,0822.4,4.97,0.00,22.5,23.0,00.0,31.2,24.5,03.4,0000.0,0006.57,0004.05,0003.85
2023-02-23 18:52:00,,0822.3,4.98,0.00,22.6,22.8,00.0,31.2,24.5,03.4,0000.0,0006.74,0004.05,0003.85
2023-02-23 18:53:00,,0822.3,4.99,0.00,22.6,22.3,00.0,31.3,24.4,03.4,0000.0,0006.66,0004.04,0003.85
2023-02-23 18:54:00,,0822.2,4.99,0.00,22.6,22.0,00.0,31.3,24.3,03.5,0000.0,0006.60,0004.04,0003.86
2023-02-23 18:55:00,,0822.2,5.01,0.00,22.6,21.7,00.0,31.3,24.3,03.4,0000.0,0006.79,0004.02,0003.86
2023-02-23 18:56:00,,0822.2,4.99,0.00,22.6,21.3,00.0,31.3,24.2,03.4,0000.0,0007.23,0004.05,0003.87
2023-02-23 18:57:00,,0822.2,5.01,0.00,22.6,21.1,00.0,31.3,24.2,03.4,0000.0,0007.31,0004.08,0003.87
2023-02-23 18:58:00,,0822.3,5.01,0.00,22.5,20.8,00.0,31.3,24.0,03.4,0000.0,0007.26,0004.11,0003.89
2023-02-23 18:59:00,,0822.3,5.00,0.00,22.4,20.6,00.0,31.2,24.0,03.5,0000.0,0007.29,0004.13,0003.90
